College Station, TX

6:34 AM CST on December 17, 2017 (GMT -0600)
Easterwood

Weather History for KCLL - October, 2014

Change the Weather History Date:

Friday, October 17, 2014

  Actual Average Record
Temperature  
Mean Temperature 72 °F 71 °F  
Max Temperature 85 °F 81 °F 92 °F (1915)
Min Temperature 59 °F 60 °F 42 °F (2001)
Degree Days  
Heating Degree Days 0 1  
Month to date heating degree days 1 7  
Since 1 July heating degree days 1 9  
Cooling Degree Days 7 7  
Month to date cooling degree days 149 143  
Year to date cooling degree days 2829 2939  
Growing Degree Days 22 (Base 50)    
Moisture  
Dew Point 61 °F    
Average Humidity 68    
Maximum Humidity 93    
Minimum Humidity 43    
Precipitation  
Precipitation 0.00 in 0.18 in 4.05 in (1937)
Month to date precipitation 1.81 2.65  
Year to date precipitation 31.15 31.35  
Sea Level Pressure  
Sea Level Pressure 29.91 in    
Wind  
Wind Speed 6 mph (South)    
Max Wind Speed 16 mph    
Max Gust Speed 20 mph    
Visibility 10 miles    
Events      
T = Trace of Precipitation, MM = Missing Value Source: NWS Daily Summary

Daily Weather History Graph

Daily Weather History Graph

Search for Another Location

Airport or City:

Trip Planner

Search our weather history database for the weather conditions in past years. The results will help you decide how hot, cold, wet, or windy it might be!

Date:

Astronomy

Oct. 17, 2014 Rise Set
Actual Time 7:29 AM CDT 6:51 PM CDT
Civil Twilight 7:04 AM CDT 7:16 PM CDT
Nautical Twilight 6:36 AM CDT 7:44 PM CDT
Astronomical Twilight 6:08 AM CDT 8:12 PM CDT
Moon 1:57 AM CDT 3:18 PM CDT
Length of Visible Light 12h 11m
Length of Day
11h 22m
Waning Crescent, 32% of the Moon is Illuminated
Oct 17
Waning Crescent
Oct 23
New
Oct 30
First Quarter
Nov 6
Full
Nov 14
Last Quarter

Hourly Weather History & Observations

Time (CDT) Temp. Heat Index Dew Point Humidity Pressure Visibility Wind Dir Wind Speed Gust Speed Precip Events Conditions
12:20 AM - - - N/A% - - South 6.9 mph - N/A   Clear
12:53 AM 66.0 °F - 57.9 °F 75% 29.88 in 10.0 mi South 4.6 mph - N/A   Clear
1:53 AM 63.0 °F - 57.9 °F 84% 29.88 in 10.0 mi SSW 5.8 mph - N/A   Clear
2:53 AM 63.0 °F - 59.0 °F 87% 29.87 in 10.0 mi South 6.9 mph - N/A   Clear
3:53 AM 62.1 °F - 59.0 °F 90% 29.87 in 10.0 mi South 3.5 mph - N/A   Clear
4:53 AM 61.0 °F - 57.9 °F 90% 29.87 in 10.0 mi South 5.8 mph - N/A   Clear
5:53 AM 61.0 °F - 57.9 °F 90% 29.89 in 10.0 mi Calm Calm - N/A   Clear
6:53 AM 60.1 °F - 57.9 °F 93% 29.91 in 10.0 mi SSE 3.5 mph - N/A   Clear
7:53 AM 60.1 °F - 57.9 °F 93% 29.93 in 10.0 mi Calm Calm - N/A   Clear
8:53 AM 64.9 °F - 62.1 °F 90% 29.95 in 10.0 mi South 6.9 mph - N/A   Clear
9:53 AM 70.0 °F - 64.0 °F 81% 29.97 in 10.0 mi SSW 8.1 mph - N/A   Clear
10:53 AM 75.0 °F - 64.0 °F 69% 29.97 in 10.0 mi SSW 8.1 mph - N/A   Clear
11:53 AM 79.0 °F - 63.0 °F 58% 29.97 in 10.0 mi SW 12.7 mph 20.7 mph N/A   Clear
12:53 PM 81.0 °F 82.2 °F 63.0 °F 54% 29.95 in 10.0 mi SSW 8.1 mph - N/A   Clear
1:53 PM 82.0 °F 83.0 °F 62.1 °F 51% 29.92 in 10.0 mi SSE 8.1 mph - N/A   Clear
2:53 PM 84.0 °F 84.4 °F 61.0 °F 46% 29.90 in 10.0 mi SSE 9.2 mph - N/A   Clear
3:53 PM 84.0 °F 83.8 °F 59.0 °F 43% 29.89 in 10.0 mi South 9.2 mph - N/A   Clear
4:53 PM 84.0 °F 84.0 °F 60.1 °F 44% 29.88 in 10.0 mi South 9.2 mph - N/A   Clear
5:53 PM 82.9 °F 83.7 °F 62.1 °F 49% 29.88 in 10.0 mi South 6.9 mph - N/A   Clear
6:53 PM 78.1 °F - 63.0 °F 60% 29.89 in 10.0 mi SE 4.6 mph - N/A   Clear
7:53 PM 73.9 °F - 62.1 °F 66% 29.91 in 10.0 mi SE 5.8 mph - N/A   Clear
8:53 PM 73.0 °F - 62.1 °F 68% 29.92 in 10.0 mi SE 4.6 mph - N/A   Clear
9:53 PM 72.0 °F - 63.0 °F 73% 29.93 in 10.0 mi SE 3.5 mph - N/A   Clear
10:53 PM 70.0 °F - 63.0 °F 78% 29.94 in 10.0 mi South 6.9 mph - N/A   Clear
11:53 PM 69.1 °F - 63.0 °F 81% 29.95 in 10.0 mi South 4.6 mph - N/A   Clear